Find Starlink 37238

NORAD ID: 69247 Int'l Des: 2026-117 Owner: SPXS Country: US Constellation: starlink operational
LEOCIRCULAR

当前视图

正在加载3D地球...

About Starlink 37238

Starlink 37238 (NORAD 69247) is a starlink constellation satellite (v2 mini) launched May 29, 2026 by SPXS of US. It operates in LEO, CIRCULAR orbit with a mass of 575.00 kg.

即将过境

Passes for default location (London). Set your location on the main map for personalized predictions.

高度历史

Loading altitude history...

两行轨道根数

1 69247U 26117K 26224.58166177 .00019245 00000-0 57894-3 0 9999
2 69247 53.1600 335.5762 0001160 58.8814 301.2302 15.34417188 11698
Epoch: Aug 12, 2026 • Age: 26 hours

当前状态

高度 467.6 km
远地点 / 近地点 N/A
速度 7.63 km/s
星下点 -16.50°S, 36.44°W
发射日期 May 29, 2026
运行时间 0.2 years
类型 internet

技术详情

分类 Payload
质量 575.00 kg
干质量 530.00 kg
总质量 575.00 kg
长度 0.30 m
直径 4.10 m
跨度 29.00 m
形状 Box + pan
制造商 SPXS
平台类型 Starlink V2MO
阶段状态 In Orbit
所有者/国家 SPXS/US

Most Searched